Flag for U.S.A. Weather past 2 weeks in Palm Springs, California, U.S.A.

Now
89 °F

Scattered clouds.


Feels Like: 91 °F
Forecast: 83 / 101 °F
Wind: No wind

Location: Palm Springs Regional Airport

Current Time: Jul 29, 2015 at 9:10:09 AM

Latest Report: Jul 29, 2015 at 7:53 AM


Visibility: 10 mi

Pressure: 29.91 "Hg

Humidity: 45%

Dew point: 65 °F

Location of Palm SpringsLocation

Historic Weather in Palm Springs — Graph

°F

Palm Springs temperature yesterday

Maximum temperature yesterday: 105 °F (at 2:53 PM)
Minimum temperature yesterday: 74 °F (at 5:53 AM)
Average temperature yesterday: 93 °F

Past Weeks' High & Low Weather Summary

 TemperatureHumidityPressure
High110 °F (Jul 25, 3:53 PM)85% (Jul 18, 6:53 PM)30.05 "Hg (Jul 18, 6:53 PM)
Low73 °F (Jul 16, 5:53 AM)7% (Jul 16, 2:53 PM)29.64 "Hg (Jul 14, 5:53 PM)
Average90 °F34%29.82 "Hg
* Reported Jul 14 7:53 AM — Jul 29 7:53 AM, Palm Springs, Weather by CustomWeather, © 2015

Note: Actual official high and low records may vary slightly from our data, if they occured in-between our weather recording intervals... More about our weather records

Advertising

Palm Springs weather history for previous 24 hours

 ConditionsComfort  
Time TempWeatherWind HumidityBarometerVisibility
7:53 AM
Wed, Jul 29
89 °FScattered clouds.No wind45%29.91 "Hg10 mi
6:53 AM86 °FPassing clouds.No wind39%29.89 "Hg10 mi
5:53 AM84 °FPassing clouds.7 mph35%29.87 "Hg10 mi
4:53 AM85 °FClear.8 mph39%29.85 "Hg10 mi
3:53 AM85 °FClear.3 mph39%29.85 "Hg10 mi
2:53 AM86 °FClear.3 mph39%29.83 "Hg10 mi
1:53 AM87 °FClear.9 mph39%29.82 "Hg10 mi
12:53 AM88 °FClear.6 mph38%29.83 "Hg10 mi
11:53 PM
Tue, Jul 28
90 °FClear.6 mph34%29.82 "Hg10 mi
10:53 PM92 °FClear.12 mph33%29.81 "Hg10 mi
9:53 PM96 °FClear.9 mph28%29.80 "Hg10 mi
8:53 PM98 °FClear.6 mph22%29.77 "Hg10 mi
7:53 PM101 °FSunny.6 mph19%29.74 "Hg10 mi
6:53 PM103 °FSunny.6 mph15%29.72 "Hg10 mi
5:53 PM105 °FSunny.7 mph12%29.72 "Hg10 mi
4:53 PM105 °FSunny.5 mph12%29.73 "Hg10 mi
3:53 PM105 °FSunny.7 mph9%29.75 "Hg10 mi
2:53 PM105 °FSunny.9 mph8%29.78 "Hg10 mi
1:53 PM104 °FSunny.7 mph9%29.80 "Hg10 mi
12:53 PM100 °FSunny.5 mph16%29.82 "Hg10 mi
11:53 AM98 °FSunny.6 mph19%29.83 "Hg10 mi
10:53 AM96 °FSunny.12 mph22%29.83 "Hg10 mi
9:53 AM92 °FSunny.7 mph24%29.83 "Hg10 mi
Weather by CustomWeather, © 2015

See weather overviewHow to use our weather pages